Home > Time Zones > World Clock > Weather > India > Bundi > Past weeks

Flag for India Weather past 2 weeks in Bundi, Rajasthan, India

Now
91 °F

Haze.


Feels Like: 97 °F
Forecast: 75 / 96 °F
Wind: 9 mph from Northwest

Location: Jaipur / Sanganer

Current Time: Sep 18, 2014 at 5:42:11 PM

Latest Report: Sep 18, 2014 at 5:00 PM


Visibility: 2 mi

Pressure: 29.71 "Hg

Humidity: 49%

Dew point: 70 °F

Location of BundiLocation

Historic Weather in Bundi — Graph

°F

Bundi temperature yesterday

Maximum temperature yesterday: 93 °F (at 3:00 PM)
Minimum temperature yesterday: 79 °F (at 3:00 AM)
Average temperature yesterday: 86 °F

Past Weeks' High & Low Weather Summary

 TemperatureHumidityPressure
High93 °F (Sep 10, 1:00 PM)100% (Sep 4, 2:00 AM)29.83 "Hg (Sep 4, 2:00 AM)
Low73 °F (Sep 12, 4:00 AM)47% (Sep 18, 2:00 PM)29.53 "Hg (Sep 3, 4:00 PM)
Average83 °F78%29.70 "Hg
* Reported Sep 3 4:00 PM — Sep 18 4:00 PM, Bundi, Weather by CustomWeather, © 2014

Note: Actual official high and low records may vary slightly from our data, if they occured in-between our weather recording intervals... More about our weather records

Advertising

Bundi weather history for previous 24 hours

 ConditionsComfort  
Time TempWeatherWind HumidityBarometerVisibility
4:00 PM
Sep 18
91 °FHaze.10 mph49%29.71 "Hg2 mi
3:00 PM91 °FHot.N/A49%29.71 "HgN/A
2:00 PM93 °FHaze.9 mph47%29.74 "Hg2 mi
1:00 PM91 °FHaze.10 mph49%29.77 "Hg2 mi
12:00 PM90 °FHaze.12 mph55%29.77 "Hg2 mi
11:00 AM88 °FHaze.10 mph62%29.80 "Hg2 mi
10:00 AM84 °FHaze.9 mph66%29.80 "Hg2 mi
9:00 AM82 °FHaze.10 mph70%29.80 "Hg2 mi
8:00 AM81 °FHaze.9 mph74%29.80 "Hg2 mi
7:00 AM79 °FHaze.6 mph79%29.77 "Hg2 mi
6:00 AM79 °FHaze.6 mph79%29.77 "Hg2 mi
4:00 AM79 °FHaze.7 mph74%29.71 "Hg2 mi
3:00 AM79 °FHaze.6 mph79%29.71 "Hg2 mi
2:00 AM79 °FHaze.6 mph79%29.71 "Hg2 mi
1:00 AM81 °FHaze.8 mph74%29.71 "Hg2 mi
12:00 AM82 °FHaze.9 mph70%29.71 "Hg2 mi
11:00 PM
Sep 17
82 °FHaze.9 mph70%29.74 "Hg2 mi
10:00 PM84 °FHaze.7 mph66%29.74 "Hg2 mi
9:00 PM86 °FHaze.6 mph62%29.74 "Hg2 mi
8:00 PM86 °FHaze.5 mph62%29.71 "Hg2 mi
7:00 PM88 °FHaze.6 mph59%29.68 "Hg2 mi
6:00 PM90 °FHaze.6 mph52%29.68 "Hg2 mi
5:00 PM91 °FHaze.9 mph49%29.68 "Hg2 mi
Weather by CustomWeather, © 2014

See weather overviewHow to use our weather pages